| time (UTC) | temp F | wind direction | speed knots | gust knots | rain 1hr in | rain 24hr in | rain mn in | humidity % | barometer mb |
| 20260506221525 | 41 | 350 | 1.7 | 7.0 | 0.00 | 0.85 | 0.69 | 96 | 1004.5 |
| 20260506220026 | 41 | 326 | 2.6 | 7.8 | 0.00 | 0.85 | 0.69 | 96 | 1004.4 |
| 20260506214522 | 42 | 347 | 1.7 | 3.5 | 0.00 | 0.85 | 0.69 | 96 | 1004.3 |
| 20260506213021 | 41 | 360 | 1.7 | 4.3 | 0.01 | 0.85 | 0.69 | 96 | 1004.3 |
| 20260506211519 | 42 | 22 | 0.0 | 3.5 | 0.03 | 0.85 | 0.69 | 97 | 1004.3 |
| 20260506210022 | 42 | 299 | 0.9 | 5.2 | 0.04 | 0.90 | 0.69 | 96 | 1004.3 |
| 20260506204517 | 42 | 308 | 1.7 | 7.0 | 0.05 | 0.90 | 0.69 | 96 | 1004.2 |
| 20260506203024 | 42 | 306 | 1.7 | 7.0 | 0.05 | 0.89 | 0.68 | 96 | 1004.3 |
| 20260506201529 | 42 | 9 | 2.6 | 6.1 | 0.05 | 0.87 | 0.66 | 96 | 1004.0 |
| 20260506200014 | 42 | 294 | 0.9 | 2.6 | 0.04 | 0.89 | 0.65 | 96 | 1003.9 |
| 20260506194510 | 41 | 259 | 3.5 | 7.8 | 0.03 | 0.88 | 0.64 | 96 | 1004.0 |
| 20260506193009 | 42 | 307 | 3.5 | 9.6 | 0.02 | 0.87 | 0.63 | 96 | 1004.1 |
| 20260506191507 | 42 | 360 | 2.6 | 6.1 | 0.00 | 0.85 | 0.61 | 96 | 1004.1 |
| 20260506190006 | 43 | 328 | 2.6 | 7.8 | 0.02 | 0.85 | 0.61 | 96 | 1003.9 |
| 20260506184534 | 44 | 319 | 0.0 | 3.5 | 0.10 | 0.85 | 0.61 | 96 | 1003.8 |
| 20260506183042 | 44 | 328 | 0.9 | 4.3 | 0.13 | 0.85 | 0.61 | 96 | 1004.0 |
| 20260506181530 | 43 | 296 | 0.9 | 4.3 | 0.15 | 0.84 | 0.60 | 96 | 1004.1 |
| 20260506180030 | 43 | 264 | 1.7 | 8.7 | 0.27 | 0.83 | 0.59 | 96 | 1004.6 |
| 20260506174528 | 43 | 284 | 3.5 | 6.1 | 0.23 | 0.75 | 0.51 | 96 | 1004.4 |
| 20260506173028 | 43 | 21 | 0.0 | 7.0 | 0.24 | 0.72 | 0.48 | 96 | 1004.5 |
| 20260506171529 | 43 | 5 | 0.9 | 8.7 | 0.24 | 0.69 | 0.45 | 96 | 1004.5 |
| 20260506170023 | 44 | 308 | 3.5 | 9.6 | 0.12 | 0.55 | 0.31 | 95 | 1004.2 |
| 20260506164518 | 45 | 38 | 0.0 | 5.2 | 0.09 | 0.51 | 0.27 | 96 | 1004.1 |
| 20260506163015 | 46 | 312 | 0.9 | 3.5 | 0.06 | 0.47 | 0.23 | 96 | 1004.2 |
| 20260506161544 | 46 | 326 | 0.0 | 3.5 | 0.06 | 0.45 | 0.21 | 96 | 1004.3 |
| 20260506160043 | 47 | 300 | 3.5 | 7.0 | 0.06 | 0.43 | 0.19 | 95 | 1004.5 |
| 20260506154520 | 52 | 146 | 2.6 | 5.2 | 0.05 | 0.42 | 0.18 | 97 | 1004.5 |
| 20260506153018 | 52 | 165 | 4.3 | 10.4 | 0.05 | 0.41 | 0.17 | 97 | 1004.4 |
| 20260506151514 | 50 | 185 | 3.5 | 8.7 | 0.04 | 0.39 | 0.15 | 97 | 1004.8 |
| 20260506150014 | 47 | 123 | 0.0 | 0.9 | 0.03 | 0.37 | 0.13 | 96 | 1005.0 |
| 20260506144514 | 47 | 297 | 1.7 | 4.3 | 0.03 | 0.36 | 0.12 | 96 | 1005.2 |
| 20260506143025 | 48 | 180 | 0.0 | 4.3 | 0.04 | 0.36 | 0.12 | 96 | 1004.9 |
| 20260506141511 | 48 | 158 | 0.9 | 4.3 | 0.04 | 0.35 | 0.11 | 97 | 1004.9 |
| 20260506140009 | 47 | 256 | 0.0 | 3.5 | 0.05 | 0.34 | 0.10 | 96 | 1005.1 |
| 20260506134511 | 46 | 271 | 0.0 | 2.6 | 0.06 | 0.33 | 0.09 | 96 | 1005.5 |
| 20260506133008 | 46 | 249 | 0.0 | 2.6 | 0.06 | 0.32 | 0.08 | 96 | 1005.4 |
| 20260506131508 | 45 | 204 | 0.0 | 7.8 | 0.06 | 0.31 | 0.07 | 96 | 1005.2 |
| 20260506130009 | 46 | 269 | 1.7 | 3.5 | 0.04 | 0.28 | 0.05 | 96 | 1005.6 |
| 20260506124502 | 46 | 292 | 0.0 | 2.6 | 0.02 | 0.27 | 0.03 | 96 | 1005.8 |
| 20260506123100 | 47 | 325 | 0.0 | 2.6 | 0.01 | 0.26 | 0.02 | 96 | 1005.8 |
| 20260506121559 | 47 | 247 | 0.9 | 3.5 | 0.00 | 0.25 | 0.01 | 96 | 1005.9 |
| 20260506120058 | 47 | 273 | 3.5 | 7.8 | 0.00 | 0.25 | 0.01 | 96 | 1006.2 |
| 20260506114555 | 47 | 315 | 1.7 | 5.2 | 0.00 | 0.25 | 0.01 | 96 | 1006.1 |
| 20260506113052 | 48 | 260 | 0.0 | 1.7 | 0.00 | 0.25 | 0.01 | 96 | 1005.5 |
| 20260506111550 | 48 | 298 | 0.9 | 1.7 | 0.00 | 0.25 | 0.01 | 96 | 1005.9 |
| 20260506110048 | 48 | 300 | 0.0 | 1.7 | 0.00 | 0.25 | 0.01 | 96 | 1005.6 |
| 20260506104545 | 48 | 355 | 0.9 | 2.6 | 0.00 | 0.25 | 0.01 | 95 | 1005.6 |
| 20260506103048 | 49 | 30 | 0.0 | 2.6 | 0.00 | 0.25 | 0.01 | 96 | 1005.6 |
| 20260506101541 | 49 | 109 | 0.0 | 2.6 | 0.01 | 0.25 | 0.01 | 96 | 1005.8 |
| 20260506100039 | 49 | 360 | 0.0 | 2.6 | 0.01 | 0.25 | 0.01 | 96 | 1006.0 |
| 20260506094537 | 49 | 301 | 0.9 | 2.6 | 0.01 | 0.25 | 0.01 | 96 | 1005.8 |
| 20260506093006 | 50 | 274 | 0.0 | 1.7 | 0.01 | 0.25 | 0.01 | 96 | 1006.1 |
| 20260506091514 | 50 | 214 | 0.9 | 1.7 | 0.00 | 0.24 | 0.00 | 96 | 1006.1 |
| 20260506090005 | 50 | 215 | 0.0 | 1.7 | 0.00 | 0.24 | 0.00 | 95 | 1006.2 |
| 20260506084503 | 50 | 304 | 0.0 | 0.9 | 0.00 | 0.24 | 0.00 | 95 | 1006.1 |
| 20260506083001 | 50 | 304 | 0.0 | 2.6 | 0.00 | 0.24 | 0.00 | 95 | 1006.6 |
| 20260506081607 | 50 | 288 | 1.7 | 4.3 | 0.00 | 0.24 | 0.00 | 95 | 1007.0 |
| 20260506080154 | 50 | 98 | 0.0 | 0.0 | 0.00 | 0.24 | 0.00 | 95 | 1006.1 |
| 20260506073023 | 50 | 98 | 0.0 | 2.6 | 0.00 | 0.24 | 0.00 | 95 | 1006.1 |
| 20260506071523 | 50 | 333 | 0.0 | 1.7 | 0.00 | 0.24 | 0.00 | 95 | 1005.9 |
| 20260506061538 | 51 | 162 | 0.0 | 0.9 | 0.07 | 0.24 | 0.24 | 94 | 1006.1 |
| 20260506044510 | 51 | 277 | 2.6 | 5.2 | 0.02 | 0.10 | 0.10 | 91 | 1006.7 |
| 20260506043008 | 51 | 355 | 3.5 | 9.6 | 0.02 | 0.10 | 0.10 | 90 | 1006.5 |
| 20260506041505 | 53 | 346 | 6.1 | 11.3 | 0.01 | 0.09 | 0.09 | 84 | 1006.4 |
| 20260506040002 | 58 | 321 | 2.6 | 7.0 | 0.00 | 0.08 | 0.08 | 77 | 1006.2 |
| 20260506034605 | 58 | 251 | 0.0 | 2.6 | 0.00 | 0.08 | 0.08 | 74 | 1005.8 |
| 20260506033027 | 58 | 188 | 0.9 | 3.5 | 0.00 | 0.08 | 0.08 | 75 | 1005.5 |
| 20260506031536 | 58 | 219 | 0.0 | 2.6 | 0.00 | 0.08 | 0.08 | 73 | 1005.5 |
| 20260506030029 | 58 | 173 | 0.9 | 2.6 | 0.00 | 0.08 | 0.08 | 72 | 1005.4 |
| 20260506024538 | 58 | 166 | 1.7 | 6.1 | 0.00 | 0.08 | 0.08 | 72 | 1005.6 |
| 20260506023023 | 58 | 153 | 0.0 | 5.2 | 0.00 | 0.08 | 0.08 | 72 | 1005.4 |
| 20260506021522 | 58 | 149 | 0.0 | 2.6 | 0.00 | 0.08 | 0.08 | 72 | 1005.5 |
| 20260506020019 | 58 | 121 | 0.9 | 3.5 | 0.00 | 0.08 | 0.08 | 72 | 1005.4 |
| 20260506014521 | 58 | 150 | 0.9 | 6.1 | 0.00 | 0.08 | 0.08 | 72 | 1005.2 |
| 20260506013018 | 58 | 164 | 0.9 | 2.6 | 0.00 | 0.08 | 0.08 | 71 | 1005.1 |
| 20260506011517 | 58 | 165 | 0.9 | 2.6 | 0.00 | 0.08 | 0.08 | 70 | 1005.1 |
| 20260506010015 | 59 | 153 | 0.0 | 1.7 | 0.00 | 0.08 | 0.08 | 69 | 1004.9 |
| 20260506004515 | 59 | 150 | 1.7 | 2.6 | 0.00 | 0.08 | 0.08 | 70 | 1005.1 |
| 20260506003014 | 59 | 283 | 0.9 | 5.2 | 0.00 | 0.08 | 0.08 | 70 | 1004.8 |
| 20260506001513 | 59 | 276 | 2.6 | 7.0 | 0.00 | 0.08 | 0.08 | 69 | 1004.8 |
| 20260506000010 | 59 | 266 | 1.7 | 7.0 | 0.00 | 0.08 | 0.08 | 70 | 1004.6 |
| 20260505234510 | 59 | 291 | 2.6 | 7.0 | 0.00 | 0.08 | 0.08 | 71 | 1004.8 |
| 20260505233009 | 59 | 285 | 1.7 | 4.3 | 0.00 | 0.08 | 0.08 | 71 | 1004.5 |
| 20260505231509 | 59 | 259 | 1.7 | 8.7 | 0.00 | 0.08 | 0.08 | 71 | 1004.1 |
| 20260505230005 | 60 | 283 | 4.3 | 11.3 | 0.00 | 0.08 | 0.08 | 71 | 1004.3 |
| 20260505224505 | 59 | 277 | 5.2 | 13.0 | 0.00 | 0.08 | 0.08 | 71 | 1004.1 |
| 20260505223004 | 59 | 244 | 3.5 | 10.4 | 0.00 | 0.08 | 0.08 | 73 | 1003.8 |